{"data":{"norad_id":67993,"intl_designator":"2026-039H","name":"STARLINK-36975","alt_names":[],"object_type":"PAYLOAD","status":"ACTIVE","operator":null,"country":"US","launch_date":"2026-02-27","launch_site_code":"AFETR","launch_vehicle":null,"mission":null,"orbit_class":"UNKNOWN","rcs_meters":null,"size_class":null,"mass_kg":null,"dimensions":null,"purposes":["comms"],"wikipedia_slug":null,"has_3d_model":false,"image_url":null,"decayed_at":null,"tle_current":{"epoch":"2026-05-24T22:26:35.142144Z","epoch_age_seconds":77092,"freshness":"FRESH","line1":"1 67993U 26039H   26144.93512896  .00009111  00000+0  34010-3 0  9996","line2":"2 67993  43.0055 338.3965 0001458 273.7212  86.3473 15.27591337 13369","mean_motion":15.27591337,"eccentricity":0.0001458,"inclination_deg":43.0055,"raan_deg":338.3965,"arg_perigee_deg":273.7212,"mean_anomaly_deg":86.3473,"bstar":0.0003401,"rev_number":1336,"period_min":94.266049114155,"perigee_km":482.01479320978,"apogee_km":484.01550517649,"semimajor_km":6861.1521491931,"source":"CELESTRAK","updated_at":"2026-05-25T13:38:21.780281Z"}}}